This is the latest recevied weather packets stored in our database for station/object SQ3VAS-10. If no packets are shown the sender has not sent any weather packets the latest 10 day(s).
| Time | Temp. | Humidity | Pressure | Rain* | Wind** | Luminosity | Snow |
|---|---|---|---|---|---|---|---|
| 1777824158 | 31.11° C | 19% | 1009.7 hPa | - | - | - | - |
| 1777823584 | 32.78° C | 18% | 1009.7 hPa | - | - | - | - |
| 1777823010 | 31.67° C | 20% | 1009.8 hPa | - | - | - | - |
| 1777822440 | 32.22° C | 20% | 1009.9 hPa | - | - | - | - |
| 1777821862 | 32.78° C | 19% | 1009.9 hPa | - | - | - | - |
| 1777821289 | 32.22° C | 20% | 1010 hPa | - | - | - | - |
| 1777820716 | 33.33° C | 20% | 1009.9 hPa | - | - | - | - |
| 1777820143 | 33.33° C | 19% | 1010.1 hPa | - | - | - | - |
| 1777819570 | 31.67° C | 20% | 1010.4 hPa | - | - | - | - |
| 1777818997 | 33.33° C | 19% | 1010.2 hPa | - | - | - | - |
| 1777818423 | 33.89° C | 18% | 1010.3 hPa | - | - | - | - |
| 1777817851 | 32.78° C | 19% | 1010.5 hPa | - | - | - | - |
| 1777817277 | 33.89° C | 19% | 1010.5 hPa | - | - | - | - |
| 1777816707 | 32.78° C | 20% | 1010.6 hPa | - | - | - | - |
| 1777816129 | 31.67° C | 21% | 1010.9 hPa | - | - | - | - |
| 1777815556 | 32.78° C | 19% | 1010.8 hPa | - | - | - | - |
| 1777814983 | 32.78° C | 19% | 1010.9 hPa | - | - | - | - |
| 1777814410 | 32.22° C | 19% | 1011.1 hPa | - | - | - | - |
| 1777813835 | 32.22° C | 19% | 1011.1 hPa | - | - | - | - |
| 1777813262 | 32.78° C | 18% | 1011.3 hPa | - | - | - | - |
| 1777812689 | 32.22° C | 17% | 1011.4 hPa | - | - | - | - |
| 1777811543 | 32.22° C | 17% | 1011.3 hPa | - | - | - | - |
| 1777810966 | 31.67° C | 18% | 1011.4 hPa | - | - | - | - |
| 1777810393 | 32.22° C | 16% | 1011.5 hPa | - | - | - | - |
| 1777809819 | 32.22° C | 17% | 1011.6 hPa | - | - | - | - |
* Rain since midnight (hover to see other rain measurements)
** Current wind speed in m/s (hover to see current wind gust speed)